Annette Island, AK

3:21 AM AKST on December 16, 2017 (GMT -0900)
Annette Island

Weather History for PANT - February, 2012

Change the Weather History Date:

Tuesday, February 7, 2012

  Actual Average Record
Temperature  
Mean Temperature 46 °F 38 °F  
Max Temperature 55 °F 43 °F 63 °F (1963)
Min Temperature 36 °F 33 °F 11 °F (2014)
Degree Days  
Heating Degree Days 19 27  
Month to date heating degree days 160 192  
Since 1 July heating degree days 4264 3971  
Cooling Degree Days 0    
Month to date cooling degree days 0  
Year to date cooling degree days 0  
Moisture  
Dew Point 31 °F    
Average Humidity 0    
Maximum Humidity 0    
Minimum Humidity 0    
Precipitation  
Precipitation 0.00 in 0.28 in 3.11 in (1976)
Month to date precipitation 1.13 2.00  
Year to date precipitation 15.06 12.73  
Snow  
Snow 0.00 in 0.30 in 7.30 in (1969)
Month to date snowfall 0.0 1.8  
Since 1 July snowfall 21.1  
Snow Depth 0.00 in    
Sea Level Pressure  
Sea Level Pressure 29.78 in    
Wind  
Wind Speed 3 mph (NNE)    
Max Wind Speed 8 mph    
Max Gust Speed 12 mph    
Visibility 10 miles    
Events      
T = Trace of Precipitation, MM = Missing Value Source: NWS Daily Summary

Daily Weather History Graph

Daily Weather History Graph

Search for Another Location

Airport or City:

Trip Planner

Search our weather history database for the weather conditions in past years. The results will help you decide how hot, cold, wet, or windy it might be!

Date:

Astronomy

Feb. 07, 2012 Rise Set
Actual Time 7:26 AM AKST 4:35 PM AKST
Civil Twilight 6:47 AM AKST 5:14 PM AKST
Nautical Twilight 6:04 AM AKST 5:57 PM AKST
Astronomical Twilight 5:22 AM AKST 6:39 PM AKST
Moon 5:05 PM AKST (2/7) 6:52 AM AKST (2/7)
Length of Visible Light 10h 26m
Length of Day
9h 09m
Full, 100% of the Moon is Illuminated
Feb 7
Full
Feb 7
Full
Feb 14
Last Quarter
Feb 21
New
Feb 29
First Quarter

Hourly Weather History & Observations

Time (AKST) Temp. Windchill Dew Point Humidity Pressure Visibility Wind Dir Wind Speed Gust Speed Precip Events Conditions
12:53 AM 37.0 °F 34.5 °F 30.9 °F 79% 29.88 in 10.0 mi NW 3.5 mph - N/A   Clear
1:53 AM 37.0 °F 34.5 °F 33.1 °F 86% 29.88 in 10.0 mi NW 3.5 mph - N/A   Overcast
2:53 AM 37.9 °F 33.5 °F 33.1 °F 83% 29.86 in 10.0 mi NW 5.8 mph - N/A   Overcast
3:53 AM 37.9 °F 34.4 °F 34.0 °F 86% 29.84 in 10.0 mi NNW 4.6 mph - N/A   Overcast
4:53 AM 39.0 °F 35.7 °F 33.1 °F 79% 29.82 in 10.0 mi NW 4.6 mph - N/A   Overcast
5:53 AM 37.9 °F 34.4 °F 34.0 °F 86% 29.81 in 10.0 mi NW 4.6 mph - N/A   Overcast
6:53 AM 37.9 °F 34.4 °F 33.1 °F 83% 29.80 in 10.0 mi NW 4.6 mph - N/A   Overcast
7:53 AM 37.0 °F - 34.0 °F 89% 29.80 in 10.0 mi Calm Calm - N/A   Overcast
8:53 AM 39.0 °F - 34.0 °F 82% 29.78 in 10.0 mi Calm Calm - N/A   Overcast
9:53 AM 43.0 °F - 34.0 °F 71% 29.77 in 10.0 mi Calm Calm - N/A   Overcast
10:53 AM 46.9 °F - 35.1 °F 63% 29.76 in 10.0 mi Calm Calm - N/A   Overcast
11:53 AM 48.9 °F - 36.0 °F 61% 29.75 in 10.0 mi SW 3.5 mph - N/A   Mostly Cloudy
12:53 PM 48.0 °F - 36.0 °F 63% 29.75 in 10.0 mi Calm Calm - N/A   Mostly Cloudy
1:53 PM 48.9 °F - 34.0 °F 56% 29.75 in 10.0 mi Calm Calm - N/A   Mostly Cloudy
2:53 PM 51.1 °F - 36.0 °F 56% 29.75 in 10.0 mi Calm Calm - N/A   Mostly Cloudy
3:53 PM 44.1 °F - 35.1 °F 71% 29.75 in 10.0 mi Calm Calm - N/A   Mostly Cloudy
4:53 PM 50.0 °F - 24.1 °F 36% 29.75 in 10.0 mi ESE 5.8 mph - N/A   Clear
5:53 PM 48.9 °F - 24.1 °F 38% 29.75 in 10.0 mi ESE 4.6 mph - N/A   Clear
6:53 PM 51.1 °F - 23.0 °F 33% 29.73 in 10.0 mi ESE 9.2 mph 18.4 mph N/A   Clear
7:53 PM 50.0 °F - 23.0 °F 35% 29.73 in 10.0 mi East 5.8 mph - N/A   Clear
8:53 PM 50.0 °F - 25.0 °F 38% 29.74 in 10.0 mi ENE 3.5 mph - N/A   Overcast
9:53 PM 50.0 °F - 25.0 °F 38% 29.73 in 10.0 mi Calm Calm - N/A   Overcast
10:53 PM 50.0 °F - 21.9 °F 33% 29.74 in 10.0 mi East 4.6 mph - N/A   Partly Cloudy
11:53 PM 51.1 °F - 21.0 °F 31% 29.75 in 10.0 mi East 6.9 mph - N/A   Clear